Weather History for Mountain Home, ID

Change the Weather History Date:

Tuesday, October 1, 2013

  Actual Average Record
Temperature  
Mean Temperature 52 °F 57 °F  
Max Temperature 64 °F 73 °F 93 °F (1997)
Min Temperature 40 °F 40 °F 25 °F (1933)
Degree Days  
Heating Degree Days 13 8  
Month to date heating degree days 13 8  
Cooling Degree Days 0 1  
Month to date cooling degree days 0 1  
Growing Degree Days 2 (Base 50)    
Moisture  
Dew Point 38 °F    
Average Humidity 65    
Maximum Humidity 93    
Minimum Humidity 36    
Precipitation  
Precipitation 0.00 in 0.02 in 1.04 in (1946)
Month to date precipitation 0.00 0.02  
Sea Level Pressure  
Sea Level Pressure 30.00 in    
Wind  
Wind Speed 9 mph (NE)    
Max Wind Speed 23 mph    
Max Gust Speed 29 mph    
Visibility 10 miles    
Events      
T = Trace of Precipitation, MM = Missing Value Source: NWS Daily Summary

Daily Weather History Graph

Daily Weather History Graph

Search for Another Location

Airport:

Trip Planner

Search our weather history database for the weather conditions in past years. The results will help you decide how hot, cold, wet, or windy it might be!

Date:

Astronomy

Oct. 01, 2013 Rise Set
Actual Time 7:41 AM MDT 7:24 PM MDT
Civil Twilight 7:12 AM MDT 7:52 PM MDT
Nautical Twilight 6:39 AM MDT 8:25 PM MDT
Astronomical Twilight 6:06 AM MDT 8:58 PM MDT
Moon 4:15 AM MDT (10/1) 5:33 PM MDT (10/1)
Length of Visible Light 12h 39m
Length of Day
11h 42m
Waning Crescent, 11% of the Moon is Illuminated
Oct 1
Waning Crescent
Oct 4
New
Oct 11
First Quarter
Oct 18
Full
Oct 26
Last Quarter

Hourly Weather History & Observations

Time (MDT) Temp. Windchill Dew Point Humidity Pressure Visibility Wind Dir Wind Speed Gust Speed Precip Events Conditions
12:58 AM 43.9 °F 38.8 °F 39.9 °F 86% 30.00 in 10.0 mi East 9.2 mph - N/A   Partly Cloudy
1:58 AM 43.7 °F 41.1 °F 39.4 °F 85% 29.99 in 10.0 mi East 4.6 mph - N/A   Clear
2:59 AM 40.3 °F 36.3 °F 37.0 °F 88% 30.00 in 10.0 mi East 5.8 mph - N/A   Clear
3:58 AM 39.7 °F 35.6 °F 36.1 °F 87% 29.99 in 10.0 mi East 5.8 mph - N/A   Clear
4:28 AM 39.2 °F 37.0 °F 37.4 °F 93% 29.99 in 10.0 mi East 3.5 mph - N/A   Mostly Cloudy
4:58 AM 41.5 °F 37.8 °F 37.8 °F 86% 29.99 in 10.0 mi East 5.8 mph - N/A   Scattered Clouds
5:23 AM 41.0 °F 37.1 °F 37.4 °F 87% 29.99 in 10.0 mi East 5.8 mph - N/A   Mostly Cloudy
5:58 AM 42.4 °F 38.1 °F 38.1 °F 85% 29.98 in 10.0 mi East 6.9 mph - N/A   Overcast
6:03 AM 42.8 °F 38.6 °F 39.2 °F 87% 29.99 in 10.0 mi East 6.9 mph - N/A   Overcast
6:33 AM 42.8 °F 41.1 °F 39.2 °F 87% 29.99 in 10.0 mi East 3.5 mph - N/A   Overcast
6:43 AM 42.8 °F 38.0 °F 39.2 °F 87% 29.99 in 10.0 mi East 8.1 mph - N/A   Overcast
6:58 AM 44.1 °F 39.5 °F 39.7 °F 85% 29.98 in 10.0 mi East 8.1 mph - N/A   Mostly Cloudy
7:58 AM 44.8 °F 39.0 °F 41.0 °F 87% 29.99 in 10.0 mi East 11.5 mph - N/A   Overcast
8:58 AM 46.9 °F - 41.5 °F 81% 29.99 in 10.0 mi ESE 12.7 mph - N/A   Mostly Cloudy
9:59 AM 51.8 °F - 41.4 °F 68% 29.99 in 10.0 mi ESE 9.2 mph - N/A   Mostly Cloudy
10:58 AM 56.1 °F - 41.4 °F 58% 29.99 in 10.0 mi East 4.6 mph - N/A   Overcast
11:33 AM 57.2 °F - 41.0 °F 55% 30.00 in 10.0 mi NE 5.8 mph - N/A   Mostly Cloudy
11:43 AM 57.2 °F - 41.0 °F 55% 30.00 in 10.0 mi ENE 5.8 mph - N/A   Mostly Cloudy
11:58 AM 57.4 °F - 40.6 °F 54% 29.99 in 10.0 mi ENE 4.6 mph - N/A   Mostly Cloudy
12:58 PM 60.8 °F - 40.6 °F 47% 29.98 in 10.0 mi Variable 4.6 mph - N/A   Partly Cloudy
1:58 PM 61.5 °F - 41.7 °F 48% 29.97 in 10.0 mi NNW 11.5 mph 16.1 mph N/A   Clear
2:58 PM 63.0 °F - 41.7 °F 46% 29.96 in 10.0 mi NW 9.2 mph - N/A   Clear
3:58 PM 64.0 °F - 37.9 °F 38% 29.95 in 10.0 mi NW 17.3 mph 20.7 mph N/A   Clear
4:58 PM 63.9 °F - 36.3 °F 36% 29.95 in 10.0 mi NNW 18.4 mph - N/A   Clear
5:58 PM 62.8 °F - 35.8 °F 37% 29.95 in 10.0 mi NW 23.0 mph - N/A   Clear
6:58 PM 60.3 °F - 35.4 °F 39% 29.97 in 10.0 mi NNW 18.4 mph 28.8 mph N/A   Clear
7:58 PM 56.8 °F - 35.4 °F 45% 30.01 in 10.0 mi NNW 15.0 mph - N/A   Partly Cloudy
8:13 PM 57.2 °F - 35.6 °F 44% 30.01 in 10.0 mi NNW 15.0 mph - N/A   Mostly Cloudy
8:58 PM 55.6 °F - 36.0 °F 48% 30.03 in 10.0 mi NW 12.7 mph - N/A   Overcast
9:33 PM 53.6 °F - 35.6 °F 51% 30.06 in 10.0 mi NW 11.5 mph - N/A   Mostly Cloudy
9:58 PM 52.0 °F - 35.2 °F 53% 30.07 in 10.0 mi NW 10.4 mph - N/A   Clear
10:58 PM 50.0 °F - 33.3 °F 53% 30.08 in 10.0 mi NW 16.1 mph - N/A   Clear
11:58 PM 46.8 °F - 35.4 °F 65% 30.10 in 10.0 mi WNW 15.0 mph - N/A   Mostly Cloudy